TimeMDT,TemperatureF,Dew PointF,Humidity,Sea Level PressureIn,VisibilityMPH,Wind Direction,Wind SpeedMPH,Gust SpeedMPH,PrecipitationIn,Events,Conditions,WindDirDegrees,DateUTC
12:53 AM,37.0,32.0,82,30.13,10.0,ESE,5.8,-,N/A,,Mostly Cloudy,110,2013-11-01 06:53:00
1:53 AM,35.1,30.9,85,30.14,10.0,SE,6.9,-,N/A,,Clear,130,2013-11-01 07:53:00
2:53 AM,35.1,30.9,85,30.14,10.0,Calm,Calm,-,N/A,,Mostly Cloudy,0,2013-11-01 08:53:00
3:53 AM,35.1,30.9,85,30.16,10.0,Calm,Calm,-,N/A,,Mostly Cloudy,0,2013-11-01 09:53:00
4:53 AM,33.1,30.9,92,30.18,10.0,Calm,Calm,-,N/A,,Overcast,0,2013-11-01 10:53:00
5:53 AM,33.1,30.9,92,30.20,10.0,Calm,Calm,-,N/A,,Mostly Cloudy,0,2013-11-01 11:53:00
6:53 AM,30.9,28.9,92,30.24,10.0,Calm,Calm,-,N/A,,Clear,0,2013-11-01 12:53:00
7:53 AM,30.9,28.9,92,30.26,10.0,ENE,3.5,-,N/A,,Partly Cloudy,60,2013-11-01 13:53:00
8:53 AM,36.0,32.0,86,30.28,10.0,Calm,Calm,-,N/A,,Clear,0,2013-11-01 14:53:00
9:53 AM,39.0,33.1,79,30.29,10.0,Calm,Calm,-,N/A,,Clear,0,2013-11-01 15:53:00
10:53 AM,43.0,33.1,68,30.28,10.0,Calm,Calm,-,N/A,,Partly Cloudy,0,2013-11-01 16:53:00
11:53 AM,46.9,35.1,63,30.27,10.0,Calm,Calm,-,N/A,,Partly Cloudy,0,2013-11-01 17:53:00
12:53 PM,50.0,36.0,59,30.26,10.0,NW,3.5,-,N/A,,Partly Cloudy,320,2013-11-01 18:53:00
1:53 PM,52.0,32.0,47,30.24,10.0,WNW,3.5,-,N/A,,Clear,290,2013-11-01 19:53:00
2:53 PM,53.1,33.1,47,30.23,10.0,North,3.5,-,N/A,,Clear,350,2013-11-01 20:53:00
3:53 PM,55.0,33.1,43,30.22,10.0,ESE,3.5,-,N/A,,Clear,120,2013-11-01 21:53:00
4:53 PM,54.0,30.9,41,30.23,10.0,Calm,Calm,-,N/A,,Partly Cloudy,0,2013-11-01 22:53:00
5:53 PM,53.1,34.0,48,30.24,10.0,North,3.5,-,N/A,,Partly Cloudy,350,2013-11-01 23:53:00
6:53 PM,45.0,37.9,76,30.27,10.0,NE,5.8,-,N/A,,Clear,50,2013-11-02 00:53:00
7:53 PM,44.1,36.0,73,30.29,10.0,SE,5.8,-,N/A,,Clear,140,2013-11-02 01:53:00
8:53 PM,41.0,35.1,79,30.28,10.0,East,5.8,-,N/A,,Clear,80,2013-11-02 02:53:00
9:53 PM,41.0,33.1,73,30.29,10.0,ENE,5.8,-,N/A,,Clear,60,2013-11-02 03:53:00
10:53 PM,39.0,33.1,79,30.30,10.0,SSW,4.6,-,N/A,,Clear,210,2013-11-02 04:53:00
11:53 PM,39.9,32.0,73,30.28,10.0,ESE,8.1,-,N/A,,Clear,120,2013-11-02 05:53:00